Location: Orange Harbor Mobile Home Park
(26.6923°N, 81.7937°W)
Time: 22:07:40
(UTC+00:00)

SL-16 R/B - Pass Details

Date: 19 September 2020
Orbit: 842 x 846 km, 71.0° (Epoch: 24 October)

Event Time Altitude Azimuth Distance (km) Brightness Sun altitude
Exits shadow 09:31:46 44° 209° (SSW) 1,145 2.5 -23.6°
Maximum altitude 09:33:37 80° 289° (WNW) 858 2.0 -23.2°
Drops below altitude 10° 09:39:17 10° 16° (NNE) 2,463 5.0 -21.9°
Sets 09:41:44 0° 18° (NNE) 3,401 5.8 -21.4°
